KI6IKQ Weather Reports


time (UTC)temp
C
wind
direction
speed
KPH
gust
KPH
rain 1hr
cm
rain 24hr
cm
rain mn
cm
humidity
%
barometer
mb
20260510091803 14 308 3.2 8.0 0.00 0.00 0.00 81 1011.9
20260510090903 14 308 3.2 8.0 0.00 0.00 0.00 81 1011.8
20260510090003 14 319 3.2 6.4 0.00 0.00 0.00 80 1011.6
20260510085403 14 323 1.6 6.4 0.00 0.00 0.00 80 1011.7
20260510084503 14 285 1.6 6.4 0.00 0.00 0.00 80 1011.8
20260510083605 14 306 1.6 4.8 0.00 0.00 0.00 79 1011.8
20260510082724 14 315 1.6 4.8 0.00 0.00 0.00 79 1011.8
20260510081803 15 292 1.6 4.8 0.00 0.00 0.00 78 1011.9
20260510080903 15 299 1.6 9.7 0.00 0.00 0.00 78 1011.9
20260510080003 15 313 1.6 6.4 0.00 0.00 0.00 78 1011.8
20260510075403 15 315 3.2 6.4 0.00 0.00 0.00 78 1011.9
20260510074503 15 301 1.6 6.4 0.00 0.00 0.00 77 1011.7
20260510073603 15 308 3.2 8.0 0.00 0.00 0.00 77 1011.8
20260510072725 15 322 3.2 8.0 0.00 0.00 0.00 76 1011.8
20260510071803 15 318 3.2 8.0 0.00 0.00 0.00 76 1011.8
20260510070903 15 321 3.2 8.0 0.00 0.00 0.00 75 1011.7
20260510070004 15 311 3.2 8.0 0.00 0.00 0.00 74 1011.8
20260510065424 16 328 3.2 8.0 0.00 0.00 0.00 74 1011.8
20260510064503 16 320 1.6 8.0 0.00 0.00 0.00 73 1011.6
20260510063603 16 312 3.2 6.4 0.00 0.00 0.00 72 1011.6
20260510062703 16 292 3.2 6.4 0.00 0.00 0.00 71 1011.6
20260510061803 16 298 1.6 4.8 0.00 0.00 0.00 71 1011.6
20260510060924 16 283 1.6 4.8 0.00 0.00 0.00 70 1011.5
20260510060003 17 281 1.6 4.8 0.00 0.00 0.00 69 1011.4
20260510055403 17 263 1.6 4.8 0.00 0.00 0.00 69 1011.3
20260510054503 17 254 1.6 6.4 0.00 0.00 0.00 68 1011.4
20260510053603 17 271 1.6 3.2 0.00 0.00 0.00 67 1011.3
20260510052703 17 304 1.6 4.8 0.00 0.00 0.00 66 1011.3
20260510051803 18 277 1.6 9.7 0.00 0.00 0.00 65 1011.2
20260510050903 18 245 1.6 4.8 0.00 0.00 0.00 64 1011.3
20260510050003 18 249 1.6 6.4 0.00 0.00 0.00 63 1011.4
20260510045403 18 248 3.2 6.4 0.00 0.00 0.00 62 1011.4
20260510044503 18 254 3.2 6.4 0.00 0.00 0.00 61 1011.3
20260510043603 19 262 3.2 8.0 0.00 0.00 0.00 61 1011.3
20260510042703 20 245 3.2 8.0 0.00 0.00 0.00 61 1011.4
20260510041803 20 244 3.2 6.4 0.00 0.00 0.00 59 1011.2
20260510040903 20 248 1.6 6.4 0.00 0.00 0.00 57 1011.2
20260510040006 20 247 1.6 9.7 0.00 0.00 0.00 57 1011.0
20260510035403 21 248 3.2 9.7 0.00 0.00 0.00 57 1010.9
20260510034503 21 248 3.2 6.4 0.00 0.00 0.00 57 1010.8
20260510033603 21 245 3.2 6.4 0.00 0.00 0.00 56 1010.7
20260510032703 22 248 3.2 8.0 0.00 0.00 0.00 55 1010.6
20260510031803 22 242 3.2 8.0 0.00 0.00 0.00 54 1010.6
20260510030903 23 245 3.2 6.4 0.00 0.00 0.00 53 1010.4
20260510030003 23 237 3.2 14.5 0.00 0.00 0.00 50 1010.3
20260510025403 24 243 3.2 14.5 0.00 0.00 0.00 49 1010.3
20260510024503 25 255 4.8 16.1 0.00 0.00 0.00 49 1010.3
20260510023603 25 254 4.8 14.5 0.00 0.00 0.00 48 1010.3
20260510022703 26 246 4.8 9.7 0.00 0.00 0.00 50 1010.3
20260510021803 26 250 4.8 12.9 0.00 0.00 0.00 49 1010.3
20260510020903 26 253 4.8 12.9 0.00 0.00 0.00 47 1010.4
20260510020003 27 250 4.8 19.3 0.00 0.00 0.00 48 1010.3
20260510015403 27 251 4.8 16.1 0.00 0.00 0.00 47 1010.3
20260510014503 27 260 4.8 14.5 0.00 0.00 0.00 47 1010.3
20260510013603 28 253 6.4 16.1 0.00 0.00 0.00 46 1010.3
20260510012703 28 255 6.4 16.1 0.00 0.00 0.00 45 1010.3
20260510011803 29 263 4.8 14.5 0.00 0.00 0.00 45 1010.3
20260510010903 29 248 4.8 16.1 0.00 0.00 0.00 45 1010.3
20260510010003 30 257 4.8 17.7 0.00 0.00 0.00 44 1010.2
20260510005403 30 264 6.4 17.7 0.00 0.00 0.00 44 1010.3
20260510004503 30 255 6.4 22.5 0.00 0.00 0.00 42 1010.3
20260510003603 31 261 6.4 20.9 0.00 0.00 0.00 41 1010.2
20260510002703 32 286 6.4 16.1 0.00 0.00 0.00 41 1010.2
20260510001803 32 322 6.4 16.1 0.00 0.00 0.00 45 1010.1
20260510000903 32 326 11.3 19.3 0.00 0.00 0.00 43 1010.1
20260510000003 32 324 6.4 17.7 0.00 0.00 0.00 42 1010.1
20260509235403 32 318 8.0 19.3 0.00 0.00 0.00 43 1010.1
20260509234503 32 321 8.0 20.9 0.00 0.00 0.00 41 1010.1
20260509233603 32 320 9.7 20.9 0.00 0.00 0.00 41 1010.2
20260509232703 32 324 9.7 19.3 0.00 0.00 0.00 41 1010.2
20260509231803 32 312 9.7 19.3 0.00 0.00 0.00 41 1010.2
20260509230903 32 333 9.7 20.9 0.00 0.00 0.00 40 1010.4
20260509230003 32 336 9.7 17.7 0.00 0.00 0.00 40 1010.3
20260509225403 32 332 11.3 20.9 0.00 0.00 0.00 38 1010.6
20260509224503 32 321 9.7 20.9 0.00 0.00 0.00 38 1010.6
20260509223603 32 325 8.0 14.5 0.00 0.00 0.00 38 1010.7
20260509222703 32 317 6.4 16.1 0.00 0.00 0.00 38 1011.0
20260509221803 32 320 8.0 20.9 0.00 0.00 0.00 39 1011.1
20260509220903 32 319 9.7 20.9 0.00 0.00 0.00 37 1011.2
20260509220024 31 328 9.7 20.9 0.00 0.00 0.00 38 1011.3
20260509215424 31 327 9.7 20.9 0.00 0.00 0.00 38 1011.3
20260509214503 31 330 8.0 19.3 0.00 0.00 0.00 39 1011.4
20260509213603 31 320 8.0 17.7 0.00 0.00 0.00 40 1011.6
20260509212703 31 316 8.0 17.7 0.00 0.00 0.00 41 1011.6
20260509211803 31 320 8.0 19.3 0.00 0.00 0.00 42 1011.7
20260509210903 31 318 6.4 14.5 0.00 0.00 0.00 42 1011.8
20260509210003 30 330 8.0 17.7 0.00 0.00 0.00 42 1012.0
20260509205403 30 330 8.0 17.7 0.00 0.00 0.00 42 1012.0
20260509204503 30 321 8.0 14.5 0.00 0.00 0.00 42 1012.0
20260509203603 30 323 8.0 19.3 0.00 0.00 0.00 45 1012.1
20260509202703 30 325 8.0 20.9 0.00 0.00 0.00 45 1012.2
20260509201803 30 313 9.7 16.1 0.00 0.00 0.00 47 1012.4
20260509200903 30 323 9.7 20.9 0.00 0.00 0.00 47 1012.4
20260509200003 29 320 8.0 17.7 0.00 0.00 0.00 47 1012.5
20260509195403 29 323 9.7 17.7 0.00 0.00 0.00 47 1012.5
20260509194503 29 317 6.4 14.5 0.00 0.00 0.00 47 1012.7
20260509193603 28 318 8.0 16.1 0.00 0.00 0.00 48 1012.8
20260509192703 28 319 6.4 16.1 0.00 0.00 0.00 51 1013.0
20260509191803 28 319 8.0 16.1 0.00 0.00 0.00 50 1013.2
20260509190903 27 321 6.4 17.7 0.00 0.00 0.00 52 1013.1
20260509190003 27 323 6.4 14.5 0.00 0.00 0.00 53 1013.2
20260509185403 27 310 8.0 16.1 0.00 0.00 0.00 53 1013.3
20260509184503 26 322 8.0 16.1 0.00 0.00 0.00 54 1013.4
20260509183603 26 319 8.0 16.1 0.00 0.00 0.00 55 1013.4
20260509182703 26 314 6.4 19.3 0.00 0.00 0.00 56 1013.3
20260509181803 26 307 6.4 16.1 0.00 0.00 0.00 57 1013.5
20260509180903 25 312 6.4 17.7 0.00 0.00 0.00 56 1013.6
20260509180024 25 301 6.4 12.9 0.00 0.00 0.00 56 1013.6
20260509175403 25 304 6.4 14.5 0.00 0.00 0.00 56 1013.8
20260509174503 25 310 6.4 14.5 0.00 0.00 0.00 55 1013.9
20260509173624 25 307 4.8 14.5 0.00 0.00 0.00 57 1013.7
20260509172703 24 297 4.8 12.9 0.00 0.00 0.00 56 1013.7
20260509171803 24 306 6.4 12.9 0.00 0.00 0.00 57 1013.7
20260509170903 23 313 4.8 12.9 0.00 0.00 0.00 58 1013.7
20260509170003 23 281 4.8 14.5 0.00 0.00 0.00 60 1013.8
20260509165403 22 260 4.8 8.0 0.00 0.00 0.00 59 1013.8
20260509164506 22 301 3.2 11.3 0.00 0.00 0.00 60 1013.9
20260509163624 22 299 3.2 6.4 0.00 0.00 0.00 62 1013.9
20260509162724 21 311 4.8 11.3 0.00 0.00 0.00 64 1013.9
20260509161824 21 328 3.2 8.0 0.00 0.00 0.00 65 1013.9
20260509160924 20 292 3.2 9.7 0.00 0.00 0.00 66 1013.8
20260509160026 20 327 3.2 6.4 0.00 0.00 0.00 68 1014.0
20260509155403 20 353 3.2 6.4 0.00 0.00 0.00 69 1014.0
20260509154503 20 30 3.2 6.4 0.00 0.00 0.00 70 1013.9
20260509153603 19 30 1.6 6.4 0.00 0.00 0.00 72 1013.9
20260509152703 18 30 3.2 4.8 0.00 0.00 0.00 74 1013.9
20260509151824 18 33 3.2 6.4 0.00 0.00 0.00 75 1014.0
20260509150924 17 35 1.6 6.4 0.00 0.00 0.00 76 1014.1
20260509150024 17 280 3.2 6.4 0.00 0.00 0.00 77 1014.2
20260509145424 17 254 3.2 6.4 0.00 0.00 0.00 78 1014.1
20260509144524 16 236 3.2 6.4 0.00 0.00 0.00 79 1014.0
20260509143626 16 219 1.6 6.4 0.00 0.00 0.00 81 1014.0
20260509142724 15 181 1.6 3.2 0.00 0.00 0.00 83 1013.9
20260509141824 14 180 1.6 3.2 0.00 0.00 0.00 85 1013.9
20260509140924 13 279 1.6 4.8 0.00 0.00 0.00 86 1013.9
20260509140024 13 290 1.6 4.8 0.00 0.00 0.00 86 1013.8
20260509135424 12 290 1.6 6.4 0.00 0.00 0.00 87 1013.7
20260509134503 12 290 1.6 6.4 0.00 0.00 0.00 87 1013.6
20260509133603 12 292 0.0 1.6 0.00 0.00 0.00 86 1013.6
20260509132703 12 294 0.0 1.6 0.00 0.00 0.00 85 1013.6
20260509131803 12 295 1.6 3.2 0.00 0.00 0.00 85 1013.5
20260509130903 12 294 0.0 3.2 0.00 0.00 0.00 84 1013.4
20260509130024 12 294 0.0 1.6 0.00 0.00 0.00 83 1013.2
20260509125424 12 293 0.0 3.2 0.00 0.00 0.00 83 1013.2
20260509124524 12 296 1.6 4.8 0.00 0.00 0.00 83 1013.2
20260509123624 12 277 1.6 3.2 0.00 0.00 0.00 83 1013.3
20260509122724 12 258 1.6 3.2 0.00 0.00 0.00 84 1013.2
20260509121803 12 269 1.6 6.4 0.00 0.00 0.00 85 1013.1
20260509120924 12 287 1.6 3.2 0.00 0.00 0.00 85 1013.1
20260509120024 12 294 1.6 6.4 0.00 0.00 0.00 85 1013.2
20260509115424 12 303 1.6 3.2 0.00 0.00 0.00 84 1013.1
20260509114524 12 288 1.6 3.2 0.00 0.00 0.00 84 1013.1
20260509113624 12 293 1.6 3.2 0.00 0.00 0.00 84 1013.1
20260509112703 12 310 1.6 3.2 0.00 0.00 0.00 83 1013.1
20260509111803 12 301 1.6 3.2 0.00 0.00 0.00 83 1013.1
20260509110903 12 322 1.6 3.2 0.00 0.00 0.00 83 1013.2
20260509110003 12 315 1.6 3.2 0.00 0.00 0.00 83 1013.3
20260509105403 12 311 1.6 3.2 0.00 0.00 0.00 83 1013.2
20260509104503 12 319 1.6 3.2 0.00 0.00 0.00 83 1013.2
20260509103603 12 328 1.6 3.2 0.00 0.00 0.00 82 1013.3
20260509102724 12 322 0.0 3.2 0.00 0.00 0.00 82 1013.4
20260509101803 12 326 1.6 3.2 0.00 0.00 0.00 85 1013.4
20260509100903 13 321 1.6 4.8 0.00 0.00 0.00 82 1013.5
20260509100004 13 299 1.6 3.2 0.00 0.00 0.00 82 1013.5
20260509095424 13 307 1.6 3.2 0.00 0.00 0.00 82 1013.6
20260509094503 13 333 1.6 3.2 0.00 0.00 0.00 82 1013.6
20260509093604 13 323 1.6 3.2 0.00 0.00 0.00 81 1013.6
20260509092703 13 321 1.6 3.2 0.00 0.00 0.00 81 1013.6